Location: Unspecified
(0.0000°N, 0.0000°E)
Time: 04:04:23
(UTC+00:00)

ZACube-1 - Visible Passes

Search period start: 22 April 2019 00:00
Search period end: 02 May 2019 00:00
Orbit: 585 x 666 km, 97.6° (Epoch: 21 April)

Date Brightness Start Highest point End Pass type
(mag) Time Alt. Az. Time Alt. Az. Time Alt. Az.
22 Apr ? 19:39:05 10° WSW 19:40:25 11° WSW 19:41:46 10° W visible
23 Apr ? 18:19:01 10° SSE 18:23:28 60° ENE 18:27:57 10° N visible
24 Apr ? 18:38:00 10° S 18:42:30 72° W 18:47:02 10° NNW visible
25 Apr ? 18:57:21 10° S 19:01:32 38° WSW 19:05:45 10° NNW visible
26 Apr ? 19:17:10 10° SSW 19:20:33 21° WSW 19:23:59 10° NW visible
27 Apr ? 19:38:09 10° WSW 19:39:35 11° WSW 19:41:01 10° W visible
28 Apr ? 18:18:09 10° SSE 18:22:39 61° ENE 18:27:08 10° N visible
29 Apr ? 18:37:09 10° S 18:41:40 72° WSW 18:46:13 10° NNW visible
30 Apr ? 18:56:29 10° S 19:00:42 38° WSW 19:04:56 10° NNW visible
01 May ? 05:32:59 10° E 05:34:14 11° ESE 05:35:30 10° ESE visible
01 May ? 19:16:18 10° SSW 19:19:44 21° WSW 19:23:10 10° NW visible
